Location: Sagn�
(15.2046°N, 12.7898°W)
Time: 07:44:06
(UTC+00:00)

Daily predictions for brighter satellites

Satellite Brightness Start Highest point End
(mag) Time Altitude Azimuth Time Altitude Azimuth Time Altitude Azimuth
Delta 2 Rocket 3.8 19:19:53 10° WNW 19:23:54 66° SW 19:28:31 10° SE
H-2A R/B 3.8 19:04:36 10° WNW 19:24:31 34° NNW 19:28:41 10° ENE
STARLINK-1091 3.9 19:21:34 10° NNW 19:25:34 50° NE 19:29:35 10° SE
ATLAS 3B CENTAUR R/B 3.0 19:15:39 10° WNW 19:27:05 68° SSW 19:31:53 10° SE
Cosmos 2369 Rocket 4.0 19:26:08 10° NE 19:28:08 12° ENE 19:30:06 10° E
CZ-4 R/B 1.3 19:26:05 10° SSE 19:29:54 61° ENE 19:33:41 10° N
STARLINK-1072 3.7 19:26:32 10° NNW 19:30:36 60° NE 19:34:40 10° SE
Cosmos 1939 Rocket 3.1 19:28:05 10° SSE 19:31:55 47° ENE 19:35:41 10° N
YAOGAN 1 2.8 19:28:48 10° SSE 19:32:58 49° ENE 19:37:08 10° N
GOES 2 Rocket 3.1 19:29:55 10° WNW 19:34:08 62° NNE 19:38:07 11° ESE
CSL-04 Rocket 4.0 19:30:28 10° SE 19:35:27 43° ENE 19:40:25 10° N
STARLINK-1096 3.6 19:31:27 10° NNW 19:35:33 70° NE 19:39:39 10° SE
Cosmos 1331 Rocket 4.5 19:31:17 10° NNW 19:36:22 64° WSW 19:41:29 10° S
Cosmos 1943 4.0 19:31:20 10° SSW 19:36:50 56° WNW 19:42:22 10° N
Cosmos 1470 4.3 19:35:21 10° SSW 19:38:58 40° W 19:42:38 10° NNW
Cosmos 1953 2.2 19:35:33 10° S 19:39:28 69° E 19:43:24 10° N
Cosmos 1745 Rocket 4.5 19:33:31 10° NNW 19:39:38 65° W 19:45:42 10° S
STARLINK-1079 3.6 19:36:25 10° NNW 19:40:32 81° NE 19:44:39 10° SE
Cosmos 1140 Rocket 4.3 19:37:37 10° SSE 19:41:58 27° E 19:46:18 10° NE
Cosmos 1726 2.3 19:39:33 10° SSE 19:43:09 48° E 19:46:45 10° NNE
STARLINK-1116 3.6 19:41:23 10° NW 19:45:30 87° WSW 19:49:37 10° SE
Cosmos 1190 Rocket 4.4 19:43:24 10° S 19:48:19 40° E 19:53:14 10° NNE
Meteor 2-10 4.0 19:45:55 10° S 19:51:09 74° E 19:56:37 10° N
GPS 2-15 Rocket1 3.2 19:47:01 10° WNW 19:51:58 79° NNE 19:55:30 19° E
CZ-3A R/B 4.2 19:06:33 10° WNW 19:52:25 70° N 19:59:05 17° E
USA 234 3.3 19:46:23 10° NE 19:52:47 58° SE 19:59:10 10° SSW
Cosmos 1626 Rocket 3.4 19:49:24 10° N 19:53:40 65° E 19:57:56 10° SSE
Aureole 2 Rocket 3.6 19:51:39 10° NNE 19:54:13 21° ENE 19:54:26 21° E
Cosmos 614 Rocket 3.9 19:49:02 10° S 19:54:14 76° ESE 19:59:27 10° NNE
STARLINK-1094 4.0 19:51:21 10° NW 19:55:26 65° SW 19:59:31 10° SSE
Cosmos 1726 Rocket 4.1 19:53:47 10° SSE 19:57:44 34° E 20:01:42 10° NNE
Centaur D-1AR AC-39 2.7 19:52:20 10° W 19:58:21 42° SSW 20:00:48 16° SE
ARGOS 4.4 19:58:52 19° E 19:59:54 20° ENE 20:03:40 10° NNE
STARLINK-1117 4.2 19:56:21 10° NW 20:00:24 55° SW 20:04:21 10° SSE
Cosmos 1602 Rocket 3.4 20:00:56 10° N 20:05:16 67° E 20:09:34 10° SSE
STARLINK-1078 4.5 20:01:23 10° NW 20:05:21 47° SW 20:09:09 11° SSE
CZ-2D R/B 4.0 20:01:48 10° S 20:05:31 52° W 20:09:14 10° NNW
H-2A R/B 2.0 20:08:45 10° SW 20:09:13 15° SSW 20:09:13 15° SSW
CZ-2C R/B 3.9 20:06:49 10° NE 20:09:06 20° ENE 20:09:06 20° ENE
Nadezhda 1 Rocket 4.1 20:04:58 10° SSE 20:11:09 53° E 20:17:19 10° NNE
ASTRO E2 3.7 20:09:59 10° SSW 20:13:27 28° SSE 20:13:27 28° SSE
Cosmos 2084 Rocket 3.8 20:09:55 10° NNW 20:14:13 48° ENE 20:15:34 36° ESE
ARGOS Delta rocket 4.0 20:09:20 10° SSE 20:14:18 61° ENE 20:19:32 10° N
Cosmos 407 Rocket 3.6 20:10:45 10° SSW 20:15:56 77° WNW 20:21:04 10° N
Cosmos 2228 2.8 20:11:57 10° S 20:16:12 82° E 20:20:29 10° N
Cosmos 676 Rocket 4.3 20:12:03 10° S 20:17:04 44° E 20:22:03 10° NNE
IRIDIUM 103 4.3 20:14:54 10° N 20:20:02 60° E 20:25:10 10° S
MINOTAUR IV R/B 4.5 20:18:40 10° S 20:23:03 60° ESE 20:27:27 10° NNE
Cosmos 1606 Rocket 4.0 20:23:06 10° SSW 20:27:27 63° W 20:31:49 10° N
ATLAS 5 CENTAUR R/B 4.3 20:30:58 10° WSW 20:33:37 17° WNW 20:36:19 10° NNW
Cosmos 1992 Rocket 3.8 20:28:58 10° N 20:34:09 73° ENE 20:35:44 44° SSE
Cosmos 1758 Rocket 3.5 20:31:10 10° N 20:34:58 59° NE 20:34:58 59° NE
IRIDIUM 106 4.3 20:33:04 10° N 20:38:16 82° W 20:43:29 10° S
Cosmos 1954 Rocket 3.8 20:34:50 10° S 20:40:06 78° ESE 20:45:20 10° NNE
ISS -1.0 20:46:08 10° NNW 20:46:36 13° N 20:46:36 13° N
Cosmos 1340 Rocket 3.3 20:50:17 58° W 20:50:26 58° W 20:54:26 10° N
Cosmos 2074 Rocket 3.9 20:46:53 10° N 20:53:11 86° W 20:56:31 30° S
Hubble Space Telescope 3.2 20:52:53 10° NW 20:55:19 15° N 20:55:44 15° N
MOS 1 4.1 20:55:30 76° SE 20:55:58 84° ENE 21:01:37 10° N
H-2A R/B 2.2 20:56:29 51° SSW 20:57:46 71° WSW 21:02:57 10° NNW
CZ-2C R/B 3.1 21:01:10 72° W 21:01:10 72° W 21:05:59 10° NNW
Cosmos 1943 Rocket 3.1 20:56:59 10° NNW 21:02:15 44° WSW 21:04:51 27° SSW
MOS 1 Rocket 3.9 21:05:30 10° N 21:10:53 65° WNW 21:11:01 65° W
Cosmos 2369 Rocket 2.8 21:06:45 10° NNW 21:12:11 51° WSW 21:12:52 48° SW
ATLAS 2AS CENTAUR RB 2.7 20:52:16 10° W 21:12:24 67° S 21:12:25 67° S
Ariane Rocket 4.4 21:16:54 28° SW 21:18:18 33° W 21:22:50 10° NW
Centaur AC-42 3.6 21:21:56 10° WNW 21:23:51 26° NW 21:23:51 26° NW
ATLAS 2AS CENTAUR R/B 4.2 21:35:51 10° N 21:38:50 25° N 21:38:50 25° N
ATLAS 5 CENTAUR R/B 3.7 22:13:01 10° WNW 22:55:58 16° E 23:07:20 10° E
